SCP
0 0 0 0 0 0 0 0 0 0 0 0 0 0 0 0 0 0 0 0 0 0 0 0 0 0 0 0 0 0 0 0 0 0 0 0 0 0 0 0 0 0 0
0 0 0 0 0 0 0 0 0 0 0 0 0 0 0 0 0 0 0 0 0 0 0 0 0 0 0 0 0 0 0 0 0 0 0 0 0 0 0 0 0 0 0
0 0 0 0 0 0 0 0 0 0 0 0 0 0 0 0 0 0 0 0 0 0 0 0 0 0 0 0 0 0 0 0 0 0 0 0 0 0 0 0 0 0 0
0 0 0 0 0 0 0 0 0 0 0 0 0 0 0 0 0 0 0 0 0 0 0 0 0 0 0 0 0 0 0 0 0 0 0 0 0 0 0 0 0 0 0
0 0 0 0 0 0 0 0 0 0 0 0 0 0 0 0 0 0 0 0 0 0 0 0 0 0 0 0 0 0 0 0 0 0 0 0 0 0 0 0 0 0 0
0 0 0 0 0 0 0 0 0 0 0 0 0 0 0 0 0 0 0 0 0 0 0 0 0 0 0 0 0 0 0 0 0 0 0 0 0 0 0 0 0 0 0
0 0 0 0 0 0 0 0 0 0 0 0 0 0 0 0 0 0 0 0 0 0 0 0 0 0 0 0 0 0 0 0 0 0 0 0 0 0 0 0 0 0 0
0 0 0 0 0 0 0 0 0 0 0 0 0 0 0 0 0 0 0 0 0 0 0 0 0 0 0 0 0 0 0 0 0 0 0 0 0 0 0 0 0 0 0
0 0 0 0 0 0 0 0 0 0 0 0 0 0 0 0 0 0 0 0 0 0 0 0 0 0 0 0 0 0 0 0 0 0 0 0 0 0 0 0 0 0 0
0 0 0 0 0 0 0 0 0 0 0 0 0 0 0 0 0 0 0 0 0 0 0 0 0 0 0 0 0 0 0 0 0 0 0 0 0 0 0 0 0 0 0
0 0 0 0 0 -0 0 0 0 0 0 0 0 0 0 0 0 0 0 0 0 0 0 0 0 0 0 0 0 0 0 0 0 0 0 0 0 0 0 0 0 0 0
0 0 0 0 0 0 0 0 0 0 0 0 0 0 0 0 0 0 0 0 0 0 0 0 0 0 0 0 0 0 0 0 0 0 0 0 0 0 0 0 0 0 0
0 0 0 0 0 0 0 0 0 0 0 0 0 0 0 0 0 0 0 0 0 0 0 0 0 0 0 0 0 0 0 0 0 0 0 0 0 0 0 0 0 0 0
0 0 0 0 0 0 0 0 0 0 0 0 0 0 0 0 0 0 0 0 0 0 0 0 0 0 0 0 0 0 0 0 0 0 0 0 0 0 0 0 0 0 0
0 0 0 0 0 0 0 0 0 0 0 0 0 0 0 0 0 0 0 0 0 0 0 0 0 0 0 0 0 0 0 0 0 0 0 0 0 0 0 0 0 0 0
-0 -0 -0 -0 -0 0 0 0 0 0 0 0 0 0 0 0 0 0 0 0 0 0 0 0 0 0 0 0 0 0 0 0 0 0 0 0 0 0 0 0 0 0 0
-0 -0 -0 -0 0 0 0 0 0 0 0 0 0 0 0 0 0 0 0 0 0 0 0 0 0 0 0 0 0 0 0 0 0 0 0 0 0 0 0 0 0 0 0
-0 -0 -0 0 0 0 0 0 0 0 0 0 0 0 0 0 0 0 0 0 0 0 0 0 0 0 0 0 0 0 0 0 0 0 0 0 0 0 0 0 0 0 0
0 0 0 0 0 0 0 0 0 0 0 0 0 0 0 0 0 0 0 0 0 0 0 0 0 0 0 0 0 0 0 0 0 0 0 0 0 0 0 0 0 0 0
0 0 0 0 0 0 0 0 0 0 0 0 0 0 0 0 0 0 0 0 0 0 0 0 0 0 0 0 0 0 0 0 0 0 0 0 0 0 0 0 0 0 0
0 0 0 0 0 0 0 0 0 0 0 0 0 0 0 0 0 0 0 0 0 0 0 0 0 0 0 0 0 0 0 0 0 0 0 0 0 0 0 0 0 0 0
0 0 0 0 0 0 0 0 0 0 0 0 0 0 0 0 0 0 0 0 0 0 0 0 0 0 0 0 0 0 0 0 0 0 0 0 0 0 0 0 0 0 0
0 0 0 0 0 0 0 0 0 0 0 0 0 0 0 0 0 0 0 0 0 0 0 0 0 0 0 0 0 0 0 0 0 0 0 0 0 0 0 0 0 0 0
0 0 0 0 0 0 0 0 0 0 0 0 0 0 0 0 0 0 0 0 0 0 0 0 0 0 0 0 0 0 0 0 0 0 0 0 0 0 0 0 0 0 0
0 0 0 0 0 0 0 0 0 0 0 0 0 0 0 0 0 0 0 0 0 0 0 0 0 0 0 0 0 0 0 0 0 0 0 0 0 0 0 0 0 0 0
0 0 0 0 0 0 0 0 0 0 0 0 0 0 0 0 0 0 0 0 0 0 0 0 0 0 0 0 0 0 0 0 0 0 0 0 0 0 0 0 0 0 0
Wind_Speed_500mb
17 14 12 12 13 14 15 16 19 21 24 28 32 36 41 47 51 58 64 70 74 76 79 79 80 79 83 85 90 90 91 92 103 109 101 94 96 94 96 92 87 89 100
23 19 16 12 10 5 5 9 14 17 21 26 31 36 40 45 48 53 58 63 69 74 76 77 77 75 78 79 83 91 91 91 97 111 101 102 97 91 89 88 87 87 91
18 16 12 7 6 5 7 11 16 20 23 27 31 34 38 43 48 53 58 63 67 70 70 72 73 73 77 78 81 85 90 87 92 98 102 104 97 94 88 88 87 85 88
14 13 11 11 11 10 11 13 17 19 22 25 29 32 35 39 44 48 53 59 63 67 71 72 72 75 77 77 77 77 84 88 90 94 98 99 100 96 90 86 88 90 91
14 14 16 18 19 20 20 22 25 27 29 32 34 35 37 39 42 46 52 57 64 68 71 73 75 77 78 77 76 79 80 84 87 93 96 97 102 101 100 96 91 88 91
14 15 16 16 19 21 24 27 29 32 34 36 40 42 44 46 48 51 56 60 63 69 75 77 79 78 78 78 79 80 82 90 91 91 94 97 100 99 96 93 86 83 82
12 14 18 22 27 29 29 31 35 38 41 43 45 48 49 49 53 55 56 62 68 70 73 78 82 81 78 77 77 78 83 88 90 90 97 100 97 96 93 87 84 83 87
16 21 26 32 36 38 41 43 45 46 48 49 49 51 55 52 55 58 62 67 72 74 74 77 79 80 80 77 74 78 84 88 91 90 96 100 97 93 93 85 69 67 70
23 27 33 38 41 45 49 53 55 60 61 62 62 60 61 60 60 63 67 71 77 81 82 82 81 81 77 73 74 77 83 90 87 88 87 83 84 82 83 75 70 65 69
28 33 37 41 46 50 54 58 62 66 73 74 76 74 74 75 68 70 71 75 81 82 83 86 87 85 79 64 68 73 82 87 83 83 78 74 75 75 76 73 69 71 71
35 38 41 46 51 55 60 62 66 70 76 81 84 86 85 82 84 83 81 82 83 86 88 87 86 86 77 62 59 73 80 74 74 73 70 66 63 67 70 67 63 60 76
38 42 45 49 54 59 65 68 69 71 75 80 83 88 89 85 82 82 82 83 82 83 88 87 86 81 76 62 64 71 70 62 65 67 65 60 58 61 63 61 60 61 64
42 47 52 56 60 63 68 71 73 73 74 78 79 85 91 89 88 85 81 80 80 78 80 81 78 72 73 73 65 67 61 59 62 69 68 61 58 54 56 60 57 60 56
48 52 56 62 65 66 70 73 76 75 76 78 81 83 85 85 83 83 82 79 77 79 75 71 71 69 69 70 67 64 61 59 64 68 67 60 55 57 60 63 63 63 56
54 57 60 64 68 71 71 72 73 71 68 72 76 76 79 85 85 74 71 76 77 75 71 73 72 63 61 59 60 60 53 52 54 60 59 56 53 57 58 56 60 60 56
60 64 68 72 74 74 76 79 69 72 70 67 69 66 74 71 73 71 69 69 68 64 67 66 70 64 59 53 51 52 49 48 44 49 53 49 54 55 57 56 55 57 56
61 64 68 69 70 72 72 74 84 79 72 71 67 64 54 61 62 68 67 65 59 56 63 64 63 58 52 45 43 42 44 40 42 44 44 42 48 53 55 56 52 56 59
59 61 64 66 67 67 67 69 71 75 83 85 68 63 55 53 57 60 59 57 59 56 56 57 55 51 42 37 33 31 35 32 32 45 45 43 41 44 48 51 51 55 56
58 58 60 60 60 60 61 63 63 65 67 71 75 67 57 50 51 54 51 51 53 55 48 48 44 35 26 24 22 22 24 29 31 36 33 32 35 34 38 38 41 46 51
52 51 51 53 54 55 55 57 58 59 62 62 63 63 61 59 59 56 49 43 41 43 42 41 36 25 20 19 13 15 15 16 23 29 33 36 35 36 38 38 33 36 44
47 46 46 45 46 48 49 51 52 53 55 57 56 54 52 54 54 51 44 38 29 26 26 26 21 19 17 16 15 14 17 19 22 24 26 28 28 30 33 36 38 40 42
43 42 41 41 41 41 42 44 45 47 48 50 49 47 45 43 40 34 28 25 22 23 23 23 17 18 13 15 17 16 14 15 16 19 22 25 27 28 30 31 34 38 41
36 36 35 34 36 37 37 38 40 41 42 42 43 42 39 35 31 26 20 18 19 20 22 22 21 17 17 17 16 14 15 16 15 15 17 21 24 27 28 31 33 36 39
32 33 33 34 34 35 36 36 36 37 38 38 38 38 36 33 30 27 23 19 16 17 16 15 16 17 18 18 19 19 20 21 21 21 21 22 23 25 29 31 33 34 37
29 30 32 33 34 34 35 35 35 36 37 38 37 36 35 33 31 28 25 23 21 18 15 13 9 11 14 16 17 18 18 19 21 22 25 27 29 30 32 34 35 37 39
29 30 31 32 32 33 34 35 35 36 36 36 35 35 35 34 33 31 29 26 23 21 20 18 16 14 15 16 18 21 21 22 23 24 25 26 28 30 33 35 36 37 38
Wind_Direction_500mb
113 128 147 170 190 205 217 229 244 249 252 260 263 264 265 265 265 266 268 271 273 275 277 278 276 280 279 280 282 282 279 276 273 281 276 278 274 275 274 271 266 256 249
96 97 104 106 119 146 199 245 263 271 276 278 281 282 280 277 275 274 274 275 277 279 281 281 280 281 280 279 278 278 278 277 276 279 280 279 278 278 274 271 269 265 254
91 91 87 77 46 351 319 304 299 298 293 288 289 288 286 286 286 285 283 281 278 278 277 277 278 277 276 277 278 279 278 278 277 277 279 278 276 276 272 270 268 263 256
84 78 73 62 46 24 6 347 334 324 317 313 309 303 298 293 290 285 281 280 280 280 280 279 278 276 277 277 277 274 277 277 277 276 277 276 275 274 271 267 264 262 253
75 66 54 39 28 16 6 357 347 340 335 331 325 320 316 313 308 303 299 293 288 285 281 279 278 279 278 277 275 275 274 273 273 275 275 274 273 271 270 273 267 260 253
61 48 37 21 4 350 341 333 328 324 320 317 314 312 311 310 309 308 305 300 296 293 289 286 282 280 279 278 275 271 268 272 272 270 272 270 274 275 275 271 265 247 237
30 11 356 347 339 332 327 323 320 317 316 315 315 313 312 313 310 309 306 302 300 297 295 294 291 289 285 281 277 272 268 267 269 270 270 271 273 275 275 270 265 264 262
339 337 334 332 328 326 323 321 318 315 313 309 308 308 307 309 309 309 307 304 301 300 299 297 293 291 289 286 281 275 270 267 267 267 268 273 272 270 270 274 277 272 249
328 331 332 330 328 324 320 317 315 311 309 306 306 305 304 305 306 307 307 306 304 302 301 297 295 293 290 287 282 277 275 270 269 268 271 272 269 266 265 262 249 237 230
331 335 334 330 327 323 319 317 316 312 309 307 305 303 300 300 301 301 302 302 301 302 300 297 296 295 293 285 279 277 274 273 275 273 271 270 265 261 258 255 253 243 227
337 334 330 328 324 321 318 318 316 314 310 307 305 302 299 298 297 296 297 297 298 298 298 299 300 298 298 294 279 276 275 279 275 272 271 268 262 256 250 246 241 236 231
326 324 323 321 318 316 314 313 310 309 308 306 305 303 302 300 298 296 295 292 293 294 295 297 298 298 297 293 283 278 279 279 271 267 266 263 256 251 245 242 242 236 236
318 317 316 312 310 308 306 306 305 306 306 305 304 303 303 303 303 303 302 299 294 293 293 294 294 290 289 289 284 281 277 269 262 261 260 258 256 256 247 237 233 223 222
319 319 317 314 312 310 305 304 304 306 307 305 304 305 305 304 304 306 306 304 300 297 296 291 289 289 285 284 282 275 271 269 259 258 259 258 255 245 236 231 220 218 203
319 318 317 316 316 314 310 307 303 302 306 305 302 302 302 303 304 306 306 304 305 304 302 298 296 294 291 288 283 279 273 268 259 256 253 250 246 237 229 218 214 212 206
320 320 319 317 316 316 313 309 305 306 307 305 302 297 298 295 300 299 297 297 295 291 289 289 287 290 291 291 287 283 273 270 261 252 246 245 241 232 223 212 214 212 207
321 321 320 318 317 318 317 316 314 309 311 310 309 305 299 300 301 299 298 298 290 282 279 285 285 287 290 288 287 281 271 270 262 247 241 241 237 232 222 218 218 219 216
320 321 320 321 321 320 319 318 318 319 317 315 316 314 311 312 307 302 300 297 285 278 279 284 287 287 288 287 287 278 269 266 257 248 244 245 239 229 224 229 229 224 217
319 319 318 319 320 319 320 319 320 320 321 319 318 321 325 316 306 306 305 290 280 279 288 290 289 285 277 291 286 277 269 258 254 241 239 232 233 236 228 233 236 227 223
318 320 320 320 321 322 323 322 324 326 325 324 323 325 328 325 317 313 311 303 288 278 286 289 291 280 268 272 274 263 252 237 238 243 246 249 247 245 245 234 228 227 225
321 324 326 325 325 325 326 328 329 328 327 324 323 322 315 308 308 308 310 307 290 285 287 295 292 279 275 268 265 262 252 246 242 242 243 243 245 243 241 244 246 241 233
325 327 329 330 331 331 331 330 331 331 331 329 327 326 323 321 319 312 300 294 285 283 282 277 277 268 264 253 247 248 248 247 243 241 239 237 236 236 237 238 237 237 238
326 329 332 334 335 336 335 335 336 336 337 337 334 332 332 331 332 330 319 303 293 286 279 275 264 258 259 255 251 242 235 234 235 238 239 237 233 234 233 234 234 233 232
327 331 335 338 339 341 342 343 342 341 343 345 344 344 343 338 334 331 330 325 317 307 291 269 260 257 255 255 257 254 248 246 243 241 239 240 239 236 235 232 230 230 231
328 331 334 336 339 340 341 343 346 348 349 349 351 352 351 350 347 342 337 330 322 318 309 304 288 264 253 244 239 240 239 242 245 245 244 243 243 243 241 239 238 236 236
321 323 326 327 328 330 334 337 340 342 344 347 348 350 352 353 352 351 349 345 341 334 325 315 304 289 277 270 264 258 256 257 258 257 253 247 242 239 239 237 236 237 238
Wind_Speed_850mb
17 14 12 12 13 14 15 16 19 21 24 28 32 36 41 47 51 58 64 70 74 76 79 79 80 79 83 85 90 90 91 92 103 109 101 94 96 94 96 92 87 89 100
23 19 16 12 10 5 5 9 14 17 21 26 31 36 40 45 48 53 58 63 69 74 76 77 77 75 78 79 83 91 91 91 97 111 101 102 97 91 89 88 87 87 91
18 16 12 7 6 5 7 11 16 20 23 27 31 34 38 43 48 53 58 63 67 70 70 72 73 73 77 78 81 85 90 87 92 98 102 104 97 94 88 88 87 85 88
14 13 11 11 11 10 11 13 17 19 22 25 29 32 35 39 44 48 53 59 63 67 71 72 72 75 77 77 77 77 84 88 90 94 98 99 100 96 90 86 88 90 91
14 14 16 18 19 20 20 22 25 27 29 32 34 35 37 39 42 46 52 57 64 68 71 73 75 77 78 77 76 79 80 84 87 93 96 97 102 101 100 96 91 88 91
14 15 16 16 19 21 24 27 29 32 34 36 40 42 44 46 48 51 56 60 63 69 75 77 79 78 78 78 79 80 82 90 91 91 94 97 100 99 96 93 86 83 82
12 14 18 22 27 29 29 31 35 38 41 43 45 48 49 49 53 55 56 62 68 70 73 78 82 81 78 77 77 78 83 88 90 90 97 100 97 96 93 87 84 83 87
16 21 26 32 36 38 41 43 45 46 48 49 49 51 55 52 55 58 62 67 72 74 74 77 79 80 80 77 74 78 84 88 91 90 96 100 97 93 93 85 69 67 70
23 27 33 38 41 45 49 53 55 60 61 62 62 60 61 60 60 63 67 71 77 81 82 82 81 81 77 73 74 77 83 90 87 88 87 83 84 82 83 75 70 65 69
28 33 37 41 46 50 54 58 62 66 73 74 76 74 74 75 68 70 71 75 81 82 83 86 87 85 79 64 68 73 82 87 83 83 78 74 75 75 76 73 69 71 71
35 38 41 46 51 55 60 62 66 70 76 81 84 86 85 82 84 83 81 82 83 86 88 87 86 86 77 62 59 73 80 74 74 73 70 66 63 67 70 67 63 60 76
38 42 45 49 54 59 65 68 69 71 75 80 83 88 89 85 82 82 82 83 82 83 88 87 86 81 76 62 64 71 70 62 65 67 65 60 58 61 63 61 60 61 64
42 47 52 56 60 63 68 71 73 73 74 78 79 85 91 89 88 85 81 80 80 78 80 81 78 72 73 73 65 67 61 59 62 69 68 61 58 54 56 60 57 60 56
48 52 56 62 65 66 70 73 76 75 76 78 81 83 85 85 83 83 82 79 77 79 75 71 71 69 69 70 67 64 61 59 64 68 67 60 55 57 60 63 63 63 56
54 57 60 64 68 71 71 72 73 71 68 72 76 76 79 85 85 74 71 76 77 75 71 73 72 63 61 59 60 60 53 52 54 60 59 56 53 57 58 56 60 60 56
60 64 68 72 74 74 76 79 69 72 70 67 69 66 74 71 73 71 69 69 68 64 67 66 70 64 59 53 51 52 49 48 44 49 53 49 54 55 57 56 55 57 56
61 64 68 69 70 72 72 74 84 79 72 71 67 64 54 61 62 68 67 65 59 56 63 64 63 58 52 45 43 42 44 40 42 44 44 42 48 53 55 56 52 56 59
59 61 64 66 67 67 67 69 71 75 83 85 68 63 55 53 57 60 59 57 59 56 56 57 55 51 42 37 33 31 35 32 32 45 45 43 41 44 48 51 51 55 56
58 58 60 60 60 60 61 63 63 65 67 71 75 67 57 50 51 54 51 51 53 55 48 48 44 35 26 24 22 22 24 29 31 36 33 32 35 34 38 38 41 46 51
52 51 51 53 54 55 55 57 58 59 62 62 63 63 61 59 59 56 49 43 41 43 42 41 36 25 20 19 13 15 15 16 23 29 33 36 35 36 38 38 33 36 44
47 46 46 45 46 48 49 51 52 53 55 57 56 54 52 54 54 51 44 38 29 26 26 26 21 19 17 16 15 14 17 19 22 24 26 28 28 30 33 36 38 40 42
43 42 41 41 41 41 42 44 45 47 48 50 49 47 45 43 40 34 28 25 22 23 23 23 17 18 13 15 17 16 14 15 16 19 22 25 27 28 30 31 34 38 41
36 36 35 34 36 37 37 38 40 41 42 42 43 42 39 35 31 26 20 18 19 20 22 22 21 17 17 17 16 14 15 16 15 15 17 21 24 27 28 31 33 36 39
32 33 33 34 34 35 36 36 36 37 38 38 38 38 36 33 30 27 23 19 16 17 16 15 16 17 18 18 19 19 20 21 21 21 21 22 23 25 29 31 33 34 37
29 30 32 33 34 34 35 35 35 36 37 38 37 36 35 33 31 28 25 23 21 18 15 13 9 11 14 16 17 18 18 19 21 22 25 27 29 30 32 34 35 37 39
29 30 31 32 32 33 34 35 35 36 36 36 35 35 35 34 33 31 29 26 23 21 20 18 16 14 15 16 18 21 21 22 23 24 25 26 28 30 33 35 36 37 38
Wind_Direction_850mb
113 128 147 170 190 205 217 229 244 249 252 260 263 264 265 265 265 266 268 271 273 275 277 278 276 280 279 280 282 282 279 276 273 281 276 278 274 275 274 271 266 256 249
96 97 104 106 119 146 199 245 263 271 276 278 281 282 280 277 275 274 274 275 277 279 281 281 280 281 280 279 278 278 278 277 276 279 280 279 278 278 274 271 269 265 254
91 91 87 77 46 351 319 304 299 298 293 288 289 288 286 286 286 285 283 281 278 278 277 277 278 277 276 277 278 279 278 278 277 277 279 278 276 276 272 270 268 263 256
84 78 73 62 46 24 6 347 334 324 317 313 309 303 298 293 290 285 281 280 280 280 280 279 278 276 277 277 277 274 277 277 277 276 277 276 275 274 271 267 264 262 253
75 66 54 39 28 16 6 357 347 340 335 331 325 320 316 313 308 303 299 293 288 285 281 279 278 279 278 277 275 275 274 273 273 275 275 274 273 271 270 273 267 260 253
61 48 37 21 4 350 341 333 328 324 320 317 314 312 311 310 309 308 305 300 296 293 289 286 282 280 279 278 275 271 268 272 272 270 272 270 274 275 275 271 265 247 237
30 11 356 347 339 332 327 323 320 317 316 315 315 313 312 313 310 309 306 302 300 297 295 294 291 289 285 281 277 272 268 267 269 270 270 271 273 275 275 270 265 264 262
339 337 334 332 328 326 323 321 318 315 313 309 308 308 307 309 309 309 307 304 301 300 299 297 293 291 289 286 281 275 270 267 267 267 268 273 272 270 270 274 277 272 249
328 331 332 330 328 324 320 317 315 311 309 306 306 305 304 305 306 307 307 306 304 302 301 297 295 293 290 287 282 277 275 270 269 268 271 272 269 266 265 262 249 237 230
331 335 334 330 327 323 319 317 316 312 309 307 305 303 300 300 301 301 302 302 301 302 300 297 296 295 293 285 279 277 274 273 275 273 271 270 265 261 258 255 253 243 227
337 334 330 328 324 321 318 318 316 314 310 307 305 302 299 298 297 296 297 297 298 298 298 299 300 298 298 294 279 276 275 279 275 272 271 268 262 256 250 246 241 236 231
326 324 323 321 318 316 314 313 310 309 308 306 305 303 302 300 298 296 295 292 293 294 295 297 298 298 297 293 283 278 279 279 271 267 266 263 256 251 245 242 242 236 236
318 317 316 312 310 308 306 306 305 306 306 305 304 303 303 303 303 303 302 299 294 293 293 294 294 290 289 289 284 281 277 269 262 261 260 258 256 256 247 237 233 223 222
319 319 317 314 312 310 305 304 304 306 307 305 304 305 305 304 304 306 306 304 300 297 296 291 289 289 285 284 282 275 271 269 259 258 259 258 255 245 236 231 220 218 203
319 318 317 316 316 314 310 307 303 302 306 305 302 302 302 303 304 306 306 304 305 304 302 298 296 294 291 288 283 279 273 268 259 256 253 250 246 237 229 218 214 212 206
320 320 319 317 316 316 313 309 305 306 307 305 302 297 298 295 300 299 297 297 295 291 289 289 287 290 291 291 287 283 273 270 261 252 246 245 241 232 223 212 214 212 207
321 321 320 318 317 318 317 316 314 309 311 310 309 305 299 300 301 299 298 298 290 282 279 285 285 287 290 288 287 281 271 270 262 247 241 241 237 232 222 218 218 219 216
320 321 320 321 321 320 319 318 318 319 317 315 316 314 311 312 307 302 300 297 285 278 279 284 287 287 288 287 287 278 269 266 257 248 244 245 239 229 224 229 229 224 217
319 319 318 319 320 319 320 319 320 320 321 319 318 321 325 316 306 306 305 290 280 279 288 290 289 285 277 291 286 277 269 258 254 241 239 232 233 236 228 233 236 227 223
318 320 320 320 321 322 323 322 324 326 325 324 323 325 328 325 317 313 311 303 288 278 286 289 291 280 268 272 274 263 252 237 238 243 246 249 247 245 245 234 228 227 225
321 324 326 325 325 325 326 328 329 328 327 324 323 322 315 308 308 308 310 307 290 285 287 295 292 279 275 268 265 262 252 246 242 242 243 243 245 243 241 244 246 241 233
325 327 329 330 331 331 331 330 331 331 331 329 327 326 323 321 319 312 300 294 285 283 282 277 277 268 264 253 247 248 248 247 243 241 239 237 236 236 237 238 237 237 238
326 329 332 334 335 336 335 335 336 336 337 337 334 332 332 331 332 330 319 303 293 286 279 275 264 258 259 255 251 242 235 234 235 238 239 237 233 234 233 234 234 233 232
327 331 335 338 339 341 342 343 342 341 343 345 344 344 343 338 334 331 330 325 317 307 291 269 260 257 255 255 257 254 248 246 243 241 239 240 239 236 235 232 230 230 231
328 331 334 336 339 340 341 343 346 348 349 349 351 352 351 350 347 342 337 330 322 318 309 304 288 264 253 244 239 240 239 242 245 245 244 243 243 243 241 239 238 236 236
321 323 326 327 328 330 334 337 340 342 344 347 348 350 352 353 352 351 349 345 341 334 325 315 304 289 277 270 264 258 256 257 258 257 253 247 242 239 239 237 236 237 238